Regional Weather Roundup
Issued by NWS Northern Indiana

Home | Current Version | Previous Version | Text Only | Print | Product List | Glossary Off
Versions: 1 2 3 4 5 6 7 8 9 10 11 12 13 14 15 16 17 18 19 20 21 22 23 24 25 26 27 28 29 30 31 32 33 34 35 36 37 38 39 40 41 42 43 44 45 46 47 48 49 50

000
ASUS43 KIWX 160801
RWRIWX

KIWX WEATHER ROUNDUP
NATIONAL WEATHER SERVICE NORTHERN INDIANA
400 AM EDT WED AUG 16 2017

NOTE: "FAIR" INDICATES FEW OR NO CLOUDS BELOW 12,000 FEET WITH NO
SIGNIFICANT WEATHER AND/OR OBSTRUCTIONS TO VISIBILITY.

* THESE STATIONS ARE NOT UNDER NWS QUALITY CONTROL. THEY ALSO MAY NOT
  REPORT WEATHER SUCH AS PRECIPITATION OR FOG.

INZ001>027-160900-
NORTHERN INDIANA

CITY           SKY/WX    TMP DP  RH WIND       PRES   REMARKS
MICHIGAN CITY* MOCLDY    59  59 100 CALM      30.00S FOG
SOUTH BEND     CLEAR     63  63 100 CALM      30.00S
GOSHEN         FOG       62  59  90 CALM      30.00S VSB 1
MONTICELLO*    PTCLDY    67  65  95 CALM      29.97F
WARSAW*        PTCLDY    61  61 100 CALM      30.00S FOG
FORT WAYNE     PTCLDY    67  63  87 E3        30.00S

$$
INZ028>050-160900-
CENTRAL INDIANA

CITY           SKY/WX    TMP DP  RH WIND       PRES   REMARKS
LAFAYETTE      CLEAR     67  66  97 E5        29.96F
KOKOMO*        CLOUDY    68  66  93 CALM      30.00S
MUNCIE*        PTCLDY    66  63  90 CALM      29.99S FOG
INDIANAPOLIS   PTCLDY    72  67  84 CALM      29.98R

$$
MIZ043>046-050>051-056>058-064>065-071>073-077>080-160900-
SOUTHWEST LOWER MICHIGAN

CITY           SKY/WX    TMP DP  RH WIND       PRES   REMARKS
BATTLE CREEK   CLEAR     67  63  87 SE6       30.02S
BENTON HARBOR  CLEAR     60  57  89 CALM      29.99S
COLDWATER*     CLEAR     62  62 100 SE3       30.01S
HILLSDALE*     MOCLDY    64  63  94 E3        30.03S FOG
HOLLAND        CLOUDY    61  58  90 E5        30.00F
GRAND RAPIDS   PTCLDY    62  61  96 NE3       30.01S
KALAMAZOO      PTCLDY    64  60  87 CALM      30.01S FOG
STURGIS*       CLEAR     63  63  99 E3        30.00S FOG
THREE RIVERS*  FAIR      64  63  96 CALM      30.01S FOG

$$
OHZ001>008-015>018-024>025-160900-
NORTHWEST OHIO

CITY           SKY/WX    TMP DP  RH WIND       PRES   REMARKS
DEFIANCE       PTCLDY    65  62  90 CALM      30.02R
FINDLAY        CLEAR     68  62  81 E3        30.00S
TOLEDO EXPRESS CLEAR     65  65 100 CALM      30.01R FOG
TOLEDO METCALF CLEAR     67  65  93 CALM      30.03R FOG
LIMA           CLEAR     64  64 100 CALM      30.01R

$$
AND FOR LAKE MICHIGAN COASTAL AND OPEN LAKE BUOY OBSERVATIONS

STATION/POSITION TEMP    WIND        PRES    VSBY  WAVE
                 AIR SEA DIR/SP/G                  HT/PER
                 (F)     (DEG/KT/KT) (MB)    (MI)  (FT/S)
CALUMET HARBOR    71      50/  7/  8 1014.9F
MICHIGAN CITY     68      70/  4/  5   N/A
BURNS HARBOR      70      70/  5/  6 1015.9S
SAINT JOSEPH      66      CALM  /  2 1016.6
SOUTH LAKE BUOY   70 71   50/  6/  8 1015.8          2/ 5
4 MI NW BRIDGMAN  70 73   90/  4/  6 1015.3F         2/ 5
MICHIGAN CITY     71 74   90/  4/  6   N/A           2/ 5

$$
&&




USA.gov is the U.S. government's official web portal to all federal, state and local government web resources and services.